When you browse on this site, cookies collect data to enhance your experience and personalize the content and advertising you see.
Visit our Privacy Policy to learn more. By continuing to use the site, you agree to this use of cookies and data.

Hourly Weather Rodnya

Today, 13 July, Monday

Time Temperature Precipitation Wind Pressure Humidity
00:00 +12°C° 0 mm 3 mps 747 mmHg 93%
01:00 +11°C° 0 mm 3 mps 747 mmHg 94%
02:00 +12°C° 0 mm 2 mps 746 mmHg 95%
03:00 +11°C° 0 mm 3 mps 746 mmHg 94%
04:00 +11°C° 0 mm 3 mps 746 mmHg 92%
05:00 +11°C° 0 mm 3 mps 746 mmHg 91%
06:00 +12°C° 0.1 mm 3 mps 746 mmHg 91%
07:00 +12°C° 0.1 mm 3 mps 746 mmHg 92%
08:00 +12°C° 0.1 mm 3 mps 746 mmHg 92%
09:00 +12°C° 0.1 mm 3 mps 745 mmHg 92%
10:00 +13°C° 0.1 mm 3 mps 745 mmHg 92%
11:00 +13°C° 0.1 mm 4 mps 745 mmHg 91%
12:00 +13°C° 0.3 mm 4 mps 745 mmHg 92%
13:00 +13°C° 0.3 mm 4 mps 745 mmHg 93%
14:00 +13°C° 0.3 mm 4 mps 745 mmHg 94%
15:00 +13°C° 0.3 mm 3 mps 744 mmHg 95%
16:00 +13°C° 0.3 mm 3 mps 744 mmHg 95%
17:00 +13°C° 0.3 mm 3 mps 744 mmHg 96%
18:00 +12°C° 0 mm 3 mps 744 mmHg 95%
19:00 +12°C° 0 mm 3 mps 744 mmHg 95%
20:00 +13°C° 0 mm 2 mps 744 mmHg 95%
21:00 +13°C° 0 mm 2 mps 744 mmHg 96%
22:00 +13°C° 0 mm 2 mps 743 mmHg 96%
23:00 +13°C° 0 mm 2 mps 743 mmHg 96%

Tomorrow, 14 July, Tuesday

Time Temperature Precipitation Wind Pressure Humidity
00:00 +13°C° 0 mm 2 mps 743 mmHg 96%
01:00 +13°C° 0 mm 2 mps 743 mmHg 96%
02:00 +13°C° 0 mm 2 mps 743 mmHg 96%
03:00 +13°C° 0 mm 2 mps 743 mmHg 96%
04:00 +13°C° 0 mm 2 mps 743 mmHg 96%
05:00 +12°C° 0 mm 3 mps 743 mmHg 95%
06:00 +14°C° 0 mm 3 mps 743 mmHg 90%
07:00 +16°C° 0 mm 3 mps 743 mmHg 85%
08:00 +17°C° 0 mm 4 mps 743 mmHg 80%
09:00 +18°C° 0 mm 4 mps 743 mmHg 75%
10:00 +19°C° 0 mm 5 mps 743 mmHg 69%
11:00 +20°C° 0 mm 5 mps 743 mmHg 64%
12:00 +21°C° 0 mm 5 mps 743 mmHg 62%
13:00 +21°C° 0 mm 5 mps 742 mmHg 61%
14:00 +22°C° 0 mm 5 mps 742 mmHg 60%
15:00 +21°C° 0 mm 5 mps 742 mmHg 63%
16:00 +21°C° 0 mm 5 mps 741 mmHg 66%
17:00 +20°C° 0 mm 5 mps 741 mmHg 68%
18:00 +20°C° 0.3 mm 5 mps 740 mmHg 71%
19:00 +19°C° 0.3 mm 5 mps 740 mmHg 73%
20:00 +17°C° 0.3 mm 5 mps 739 mmHg 76%
21:00 +16°C° 2 mm 5 mps 739 mmHg 82%
22:00 +15°C° 2 mm 6 mps 738 mmHg 89%
23:00 +14°C° 2 mm 6 mps 737 mmHg 95%

Day after tomorrow, 15 July, Wednesday

Time Temperature Precipitation Wind Pressure Humidity
00:00 +14°C° 4.1 mm 7 mps 737 mmHg 96%
01:00 +14°C° 4.1 mm 7 mps 737 mmHg 96%
02:00 +12°C° 4.1 mm 8 mps 737 mmHg 96%
03:00 +12°C° 2.1 mm 8 mps 737 mmHg 96%
04:00 +12°C° 2.1 mm 8 mps 737 mmHg 96%
05:00 +12°C° 2.1 mm 8 mps 737 mmHg 96%
06:00 +12°C° 0.6 mm 8 mps 737 mmHg 96%
07:00 +12°C° 0.6 mm 8 mps 737 mmHg 96%
08:00 +12°C° 0.6 mm 7 mps 737 mmHg 96%
09:00 +12°C° 0.2 mm 7 mps 737 mmHg 95%
10:00 +12°C° 0.2 mm 7 mps 737 mmHg 95%
11:00 +14°C° 0.2 mm 6 mps 737 mmHg 94%
12:00 +14°C° 0.3 mm 6 mps 738 mmHg 94%
13:00 +14°C° 0.3 mm 6 mps 738 mmHg 94%
14:00 +14°C° 0.3 mm 6 mps 738 mmHg 94%
15:00 +14°C° 0.1 mm 6 mps 738 mmHg 93%
16:00 +14°C° 0.1 mm 6 mps 738 mmHg 92%
17:00 +14°C° 0.1 mm 6 mps 738 mmHg 91%
18:00 +14°C° 0.1 mm 6 mps 738 mmHg 92%
19:00 +13°C° 0.1 mm 6 mps 739 mmHg 93%
20:00 +13°C° 0.1 mm 6 mps 739 mmHg 93%
21:00 +13°C° 0 mm 5 mps 739 mmHg 93%
22:00 +13°C° 0 mm 5 mps 739 mmHg 94%
23:00 +13°C° 0 mm 5 mps 739 mmHg 94%

16 July, Thursday

Time Temperature Precipitation Wind Pressure Humidity
00:00 +13°C° 0 mm 5 mps 739 mmHg 93%
01:00 +13°C° 0 mm 5 mps 739 mmHg 92%
02:00 +13°C° 0 mm 5 mps 739 mmHg 91%
03:00 +13°C° 0.2 mm 5 mps 739 mmHg 92%
04:00 +12°C° 0.2 mm 5 mps 739 mmHg 93%
05:00 +12°C° 0.2 mm 5 mps 739 mmHg 94%
06:00 +12°C° 0.2 mm 5 mps 739 mmHg 94%
07:00 +13°C° 0.2 mm 5 mps 739 mmHg 94%
08:00 +13°C° 0.2 mm 5 mps 739 mmHg 94%
09:00 +13°C° 0.3 mm 5 mps 739 mmHg 93%
10:00 +14°C° 0.3 mm 5 mps 739 mmHg 92%
11:00 +14°C° 0.3 mm 6 mps 740 mmHg 91%
12:00 +14°C° 0.6 mm 5 mps 740 mmHg 93%
13:00 +14°C° 0.6 mm 5 mps 740 mmHg 94%
14:00 +14°C° 0.6 mm 5 mps 740 mmHg 95%
15:00 +14°C° 0.3 mm 4 mps 741 mmHg 95%
16:00 +14°C° 0.3 mm 4 mps 741 mmHg 95%
17:00 +14°C° 0.3 mm 4 mps 741 mmHg 95%
18:00 +14°C° 0.2 mm 4 mps 741 mmHg 95%
19:00 +13°C° 0.2 mm 3 mps 741 mmHg 96%
20:00 +13°C° 0.2 mm 3 mps 741 mmHg 96%
21:00 +13°C° 0 mm 3 mps 742 mmHg 96%
22:00 +13°C° 0 mm 3 mps 742 mmHg 96%
23:00 +13°C° 0 mm 3 mps 742 mmHg 96%

17 July, Friday

Time Temperature Precipitation Wind Pressure Humidity
00:00 +13°C° 0 mm 3 mps 742 mmHg 96%
01:00 +12°C° 0 mm 3 mps 742 mmHg 96%
02:00 +12°C° 0 mm 3 mps 742 mmHg 97%
03:00 +12°C° 0 mm 3 mps 742 mmHg 97%
04:00 +12°C° 0 mm 3 mps 742 mmHg 96%
05:00 +12°C° 0 mm 3 mps 742 mmHg 96%
06:00 +13°C° 0 mm 3 mps 742 mmHg 95%
07:00 +13°C° 0 mm 3 mps 742 mmHg 93%
08:00 +14°C° 0 mm 3 mps 742 mmHg 92%
09:00 +16°C° 0 mm 3 mps 743 mmHg 89%
10:00 +16°C° 0 mm 3 mps 743 mmHg 85%
11:00 +17°C° 0 mm 3 mps 743 mmHg 82%
12:00 +17°C° 0.1 mm 3 mps 743 mmHg 82%
13:00 +18°C° 0.1 mm 3 mps 744 mmHg 82%
14:00 +18°C° 0.1 mm 3 mps 744 mmHg 81%
15:00 +18°C° 0 mm 3 mps 744 mmHg 81%
16:00 +18°C° 0 mm 3 mps 744 mmHg 81%
17:00 +18°C° 0 mm 3 mps 744 mmHg 81%
18:00 +17°C° 0 mm 3 mps 744 mmHg 84%
19:00 +16°C° 0 mm 2 mps 744 mmHg 88%
20:00 +15°C° 0 mm 2 mps 744 mmHg 91%
21:00 +14°C° 0 mm 2 mps 745 mmHg 92%
22:00 +14°C° 0 mm 2 mps 745 mmHg 93%
23:00 +13°C° 0 mm 2 mps 745 mmHg 94%

18 July, Saturday

Time Temperature Precipitation Wind Pressure Humidity
00:00 +13°C° 0 mm 2 mps 745 mmHg 94%
01:00 +12°C° 0 mm 2 mps 745 mmHg 95%
02:00 +12°C° 0 mm 2 mps 745 mmHg 95%
03:00 +12°C° 0 mm 2 mps 745 mmHg 93%
04:00 +12°C° 0 mm 2 mps 746 mmHg 92%
05:00 +11°C° 0 mm 3 mps 746 mmHg 91%
06:00 +12°C° 0 mm 3 mps 746 mmHg 89%
07:00 +12°C° 0 mm 3 mps 746 mmHg 87%
08:00 +12°C° 0 mm 3 mps 746 mmHg 85%
09:00 +12°C° 0 mm 3 mps 746 mmHg 84%
10:00 +13°C° 0 mm 3 mps 746 mmHg 84%
11:00 +13°C° 0 mm 3 mps 746 mmHg 83%
12:00 +13°C° 0 mm 3 mps 746 mmHg 81%
13:00 +14°C° 0 mm 3 mps 747 mmHg 79%
14:00 +14°C° 0 mm 3 mps 747 mmHg 78%
15:00 +14°C° 0 mm 3 mps 747 mmHg 79%
16:00 +14°C° 0 mm 3 mps 747 mmHg 81%
17:00 +15°C° 0 mm 2 mps 747 mmHg 82%
18:00 +14°C° 0 mm 2 mps 747 mmHg 84%
19:00 +14°C° 0 mm 2 mps 747 mmHg 87%
20:00 +13°C° 0 mm 2 mps 747 mmHg 89%
21:00 +13°C° 0 mm 2 mps 747 mmHg 87%
22:00 +13°C° 0 mm 2 mps 747 mmHg 86%
23:00 +13°C° 0 mm 2 mps 747 mmHg 84%
Show more